Regional Weather Roundup
Issued by NWS

Home | Current Version | Previous Version | Text Only | Print | Product List | Glossary Off
Versions: 1 2 3 4 5 6 7 8 9 10 11 12 13 14 15 16 17 18 19 20 21 22 23 24 25 26 27 28 29 30 31 32 33 34 35 36 37 38 39 40 41 42 43 44 45 46 47 48 49 50

000
ASUS43 KMPX 130710
RWRMN
WEATHER ROUNDUP FOR MINNESOTA
NATIONAL WEATHER SERVICE TWIN CITIES/CHANHASSEN MN
100 AM CST WED DEC 13 2017


NOTE: "FAIR" INDICATES FEW OR NO CLOUDS BELOW 12,000 FEET WITH NO
SIGNIFICANT WEATHER AND/OR OBSTRUCTIONS TO VISIBILITY. N/A MEANS
CURRENT SKY AND/OR WEATHER CONDITIONS ARE NOT AVAILABLE.

MNZ060>063-068>070-130800-
   Twin Cities Metro

CITY           SKY/WX    TMP DP  RH WIND       PRES   REMARKS
TWIN CITIES    MOCLDY    26  24  92 SE8       29.51F WCI  18
ST PAUL        CLOUDY    26  23  88 SE7       29.54F WCI  18
CRYSTAL        MOCLDY    28  22  78 SE7       29.49F WCI  21
BLAINE         CLOUDY    28  25  86 SE7       29.50F WCI  21
LAKEVILLE      PTCLDY    28  25  86 S8        29.50F WCI  20
EDEN PRAIRIE   MOCLDY    32  25  75 S8        29.49F WCI  25
SOUTH ST PAUL  CLOUDY    26  22  86 SE3       29.52F
LAKE ELMO      MOCLDY    28  23  80 SE7       29.53F WCI  21
$$
MNZ001>005-007-008-013>017-022>024-027-028-130800-
   Northwest Minnesota

CITY           SKY/WX    TMP DP  RH WIND       PRES   REMARKS
BEMIDJI        FLURRIES  21  20  93 S13       29.35F WCI   9
HALLOCK        CLOUDY    27  25  93 NE6       29.42S WCI  20
ROSEAU         CLOUDY    19  16  86 NE10      29.44S WCI   8
WARROAD        CLOUDY    18  14  86 NE12      29.45S WCI   5
THIEF RVR FALL CLOUDY    33  29  85 W9        29.39R WCI  25
CROOKSTON      MIX PCPN  34  30  86 NW10      29.41F WCI  26
FOSSTON        CLOUDY    30  28  93 SW8       29.38F WCI  23
DETROIT LAKES  CLOUDY    30  28  93 CALM      29.38F
MOORHEAD       CLOUDY    30  27  86 CALM      29.38F
PARK RAPIDS    MIX PCPN  21  18  88 E5        29.40F WCI  15
MAHNOMEN       CLOUDY    32  28  85 S6        29.36F WCI  26
$$
MNZ006-009>011-018-025>026-130800-
   North Central Minnesota

CITY           SKY/WX    TMP DP  RH WIND       PRES   REMARKS
BAUDETTE       CLOUDY    15  13  91 E10       29.45R WCI   2
FLAG ISLAND    FLURRIES  12  10  92 NE6       29.50R WCI   3
INTL FALLS     CLOUDY    14  10  84 E9        29.49F WCI   2
WASKISH        CLOUDY    18  16  93 SE6       29.41F WCI   9
BIG FORK       CLOUDY    16  12  86 SE9       29.44F WCI   4
LONGVILLE      CLOUDY    18  16  93 SE5       29.44F WCI  11
GRAND RAPIDS   CLOUDY    13  10  88 SE6       29.47F WCI   4
CRANE LAKE     CLOUDY    12  10  92 CALM      29.55F
ORR            CLOUDY    12  10  92 SE7       29.46F WCI   2
COOK           CLOUDY    14  12  92 E5        29.49F WCI   6
WALKER         FLURRIES  20  17  90 SE5       29.41F WCI  13
$$
MNZ012-019>021-037-130800-
   Northeast Minnesota

CITY           SKY/WX    TMP DP  RH WIND       PRES   REMARKS
DULUTH         CLOUDY    14  13  95 SE12      29.52F WCI   0
ELY            CLOUDY    14  10  85 SE13      29.52F WCI   0
HIBBING        CLOUDY    12  10  92 SE12      29.49F WCI  -2
EVELETH        CLOUDY    14  10  86 SE7       29.51F WCI   3
DULUTH HARBOR  CLOUDY    18  14  86 SE6       29.60F WCI   9
TWO HARBORS    CLOUDY    19  16  86 E6        29.57F HAZE    WCI  11
SILVER BAY     CLOUDY    18  18 100 E6        29.58F WCI   9
GRAND MARAIS     N/A     22  17  81 SE12      29.69F WCI  10
G MARAIS ARPRT LGT SNOW  10   5  79 CALM      29.60F
$$
MNZ029>031-032-039>041-046>048-054>057-064-130800-
   West Central Minnesota

CITY           SKY/WX    TMP DP  RH WIND       PRES   REMARKS
FERGUS FALLS   CLOUDY    30  27  86 CALM      29.41F
WHEATON        CLOUDY    39  27  60 W13       29.42F
MORRIS         CLOUDY    27  25  93 S3        29.39F
ALEXANDRIA     CLOUDY    32  26  78 SW9       29.39F WCI  24
ELBOW LAKE     FAIR      28  26  91 S7        29.39F WCI  21
WADENA         CLOUDY    25  25 100 E5        29.39F WCI  19
GLENWOOD       CLOUDY    28  27  93 S8        29.40F WCI  20
APPLETON       CLOUDY    36  27  69 SW9       29.40F
BENSON         CLOUDY    28  25  86 S5        29.42F WCI  23
ORTONVILLE     CLOUDY    43  25  49 W12G18    29.41F
MADISON        CLOUDY    45  27  49 W16       29.41F
WILLMAR        FAIR      28  27  93 SE6       29.43F WCI  22
$$
MNZ033>034-036-042>043-049>051-058-059-130800-
   Central Minnesota

CITY           SKY/WX    TMP DP  RH WIND       PRES   REMARKS
ST CLOUD       CLOUDY    24  22  91 MISG      29.45F
SAUK CENTRE    PTSUNNY   29  27  91 SE6       29.40F WCI  23
PAYNESVILLE    CLOUDY    31  28  91 S5        29.43F WCI  26
AITKIN         CLOUDY    16  12  86 SE8       29.45F WCI   5
PINE RIVER     CLOUDY    18  16  93 SE7       29.47F WCI   8
BRAINERD       CLOUDY    22  18  85 SE6       29.45F WCI  14
STAPLES        CLOUDY    19  18  93 SE3       29.41F
LONG PRAIRIE   FAIR      27  23  86 SE5       29.42F WCI  21
LITTLE FALLS   CLOUDY    23  19  86 SE5       29.44F WCI  17
LITCHFIELD     CLOUDY    30  28  93 S3        29.45F
BUFFALO        CLOUDY    30  26  83 S3        29.48F
MAPLE LAKE     CLOUDY    31  28  90 S6        29.46F WCI  25
HUTCHINSON     CLOUDY    30  27  88 S5        29.47F WCI  25
$$
MNZ037-044-045-052-053-130800-
   East Central Minnesota

CITY           SKY/WX    TMP DP  RH WIND       PRES   REMARKS
PRINCETON      PTCLDY    23  19  86 E5        29.47F WCI  17
MORA           CLOUDY    19  14  79 E3        29.53F
CAMBRIDGE      CLOUDY    25  18  74 SE6       29.49F WCI  18
RUSH CITY      CLOUDY    20  16  84 SE6       29.51F WCI  13
MOOSE LAKE     CLOUDY    18  12  79 SE5       29.50F WCI  11
HINCKLEY       CLOUDY    19  16  86 E8        29.51F WCI   9
CLOQUET        CLOUDY    12   9  85 E7        29.51F WCI   2
MCGREGOR       CLOUDY    18  14  86 SE9       29.48F WCI   6
$$
MNZ071>073-080-081-089-090-097-098-130800-
   Southwest Minnesota

CITY           SKY/WX    TMP DP  RH WIND       PRES   REMARKS
MONTEVIDEO     CLOUDY    36  28  75 W5        29.41F
GRANITE FALLS  PTCLDY    37  27  69 SW12      29.44F
CANBY          PTCLDY    41  26  55 SW14      29.44F
MARSHALL       CLEAR     40  25  55 W23       29.44F
REDWOOD FALLS  CLOUDY    33  25  72 SW9       29.45F WCI  25
OLIVIA         CLOUDY    32  28  86 S6        29.44F WCI  26
PIPESTONE      CLOUDY    30  23  74 W8        29.50F WCI  23
WINDOM         PTCLDY    34  19  55 S12       29.50F WCI  25
WORTHINGTON    CLOUDY    34  23  64 SW17      29.51F WCI  23
JACKSON        CLOUDY    32  25  74 MISG      29.52F
TRACY          CLOUDY    39  27  60 W21G26    29.46F
SLAYTON        CLOUDY    34  25  69 SW20      29.50F WCI  23
$$
MNZ065>067-074>077-082>085-091>093-130800-
   South Central Minnesota

CITY           SKY/WX    TMP DP  RH WIND       PRES   REMARKS
MANKATO        CLOUDY    29  25  85 S13       29.51F WCI  19
NEW ULM        CLOUDY    30  25  80 S7        29.48F WCI  23
ST JAMES       CLOUDY    32  27  80 S13       29.50F WCI  22
FAIRMONT       CLOUDY    29  24  82 SW14      29.52F WCI  18
GLENCOE        CLOUDY    31  27  86 S7        29.47F WCI  24
FARIBAULT      CLOUDY    30  25  80 S7        29.53F WCI  23
OWATONNA       CLOUDY    28  25  86 S15       29.53F WCI  17
WASECA         PTCLDY    30  27  86 S12       29.54F WCI  21
ALBERT LEA     CLOUDY    30  21  69 S9        29.56F WCI  22
$$
MNZ078>079-086>088-094>096-130800-
   Southeast Minnesota

CITY           SKY/WX    TMP DP  RH WIND       PRES   REMARKS
ROCHESTER      CLOUDY    25  21  85 S17       29.56F WCI  12
RED WING       CLOUDY    27  19  74 SE6       29.56F WCI  20
STANTON        CLOUDY    30  25  79 S9        29.51F WCI  22
DODGE CENTER   CLOUDY    27  21  80 S16       29.54F WCI  14
WINONA           N/A     25  19  80 SE7       29.63F WCI  17
AUSTIN         CLOUDY    25  21  86 S12       29.56F WCI  14
PRESTON        CLOUDY    25  20  80 S14       29.60F WCI  13
$$
ABBREVIATIONS USED IN REMARKS
   TC - TEMPERATURES IN CELSIUS
  WCI - WIND CHILL INDEX
   HX - HEAT INDEX
  VSB - VISIBILITY
$$




USA.gov is the U.S. government's official web portal to all federal, state and local government web resources and services.